Regional Weather Roundup
Issued by NWS

Home | Current Version | Previous Version | Text Only | Print | Product List | Glossary Off
Versions: 1 2 3 4 5 6 7 8 9 10 11 12 13 14 15 16 17 18 19 20 21 22 23 24 25 26 27 28 29 30 31 32 33 34 35 36 37 38 39 40 41 42 43 44 45 46 47 48 49 50

000
ASUS44 KOUN 240510
RWROK

WEATHER ROUNDUP FOR OKLAHOMA
NATIONAL WEATHER SERVICE NORMAN OK
1200 AM CDT FRI MAR 24 2017

NOTE: "FAIR" INDICATES FEW OR NO CLOUDS BELOW 12,000 FEET WITH NO
      SIGNIFICANT WEATHER AND/OR OBSTRUCTIONS TO VISIBILITY.

OKZ001>007-009>012-014-015-017-240600-
NORTHWEST OKLAHOMA AND THE PANHANDLE

CITY           SKY/WX    TMP DP  RH WIND       PRES   REMARKS
GAGE           CLOUDY    72  46  39 S37G48    29.64F
GUYMON         MOCLDY    55  46  71 S14       29.57R
ENID/WOODRING  CLEAR     72  46  40 S28G45    29.68S
$$

OKZ016-021>023-033>039-044-045-240600-
SOUTHWEST OKLAHOMA

CITY           SKY/WX    TMP DP  RH WIND       PRES   REMARKS
LAWTON/REGL    CLEAR     71  46  40 S22G33    29.72S
LAWTON/FT SILL CLEAR     70  48  45 S20G31    29.72S
FREDERICK      PTCLDY    72  44  36 S23G35    29.74R
CLINTON        PTCLDY    69  43  38 S31G43    29.71R
HOBART         CLEAR     71  44  37 S32G45    29.74R
ALTUS AFB      MOCLDY    72  39  30 S23       29.74R
$$

OKZ018>020-024>031-240600-
CENTRAL OKLAHOMA

CITY           SKY/WX    TMP DP  RH WIND       PRES   REMARKS
OKLAHOMA CITY  PTCLDY    72  42  34 S32G48    29.71F
OKC/WILEY POST CLEAR     73  44  35 S31G45    29.71F
OKC/TINKER AFB CLEAR     72  43  34 S32G44    29.72F
STILLWATER     CLEAR     73  46  38 S28G39    29.74F
GUTHRIE        CLEAR     73  45  36 S24G40    29.72F
$$

OKZ008-013-054>072-240600-
NORTHEAST OKLAHOMA

CITY           SKY/WX    TMP DP  RH WIND       PRES   REMARKS
TULSA          PTCLDY    73  49  42 S16G26    29.79F
TULSA/JONES    CLEAR     72  49  44 S14G21    29.80F
PONCA CITY     PTCLDY    73  48  41 S20G35    29.71F
BARTLESVILLE   CLEAR     70  49  47 S13       29.80S
MUSKOGEE       CLEAR     73  49  42 S15       29.86R
$$

OKZ032-040>043-046>053-073>077-240600-
SOUTH CENTRAL/SOUTHEAST OKLAHOMA

CITY           SKY/WX    TMP DP  RH WIND       PRES   REMARKS
ARDMORE/DWNTWN PTCLDY    72  37  28 SW17G29   29.83S
MCALESTER      CLOUDY    76  43  30 S15G28    29.86S
$$




USA.gov is the U.S. government's official web portal to all federal, state and local government web resources and services.